Logan, UT

4:47 AM MDT on March 26, 2017 (GMT -0600)
Logan-Cache

Weather History for KLGU - February, 2013

Change the Weather History Date:

Friday, February 22, 2013

  Actual Average Record
Temperature  
Mean Temperature 27 °F -  
Max Temperature 33 °F 40 °F 57 °F (1958)
Min Temperature 21 °F 20 °F -8 °F (1976)
Degree Days  
Heating Degree Days 38    
Moisture  
Dew Point 21 °F    
Average Humidity 77    
Maximum Humidity 93    
Minimum Humidity 59    
Precipitation  
Precipitation 0.01 in - - ()
Sea Level Pressure  
Sea Level Pressure 30.09 in    
Wind  
Wind Speed 3 mph (East)    
Max Wind Speed 12 mph    
Max Gust Speed -    
Visibility 7 miles    
Events Snow    
Averages and records for this station are not official NWS values.
T = Trace of Precipitation, MM = Missing Value Source: NWS Daily Summary

Daily Weather History Graph

Daily Weather History Graph

Search for Another Location

Airport or City:

Trip Planner

Search our weather history database for the weather conditions in past years. The results will help you decide how hot, cold, wet, or windy it might be!

Date:

Astronomy

Feb. 22, 2013 Rise Set
Actual Time 7:12 AM MST 6:09 PM MST
Civil Twilight 6:44 AM MST 6:37 PM MST
Nautical Twilight 6:12 AM MST 7:10 PM MST
Astronomical Twilight 5:39 AM MST 7:42 PM MST
Moon 3:23 PM MST (2/22) 5:01 AM MST (2/22)
Length of Visible Light 11h 53m
Length of Day
10h 57m
Waxing Gibbous, 90% of the Moon is Illuminated
Feb 22
Waxing Gibbous
Feb 25
Full
Mar 4
Last Quarter
Mar 11
New
Mar 19
First Quarter

Hourly Weather History & Observations

Time (MST) Temp. Windchill Dew Point Humidity Pressure Visibility Wind Dir Wind Speed Gust Speed Precip Events Conditions
12:51 AM 21.9 °F - 18.0 °F 85% 30.08 in 10.0 mi Calm Calm - N/A   Overcast
1:51 AM 24.1 °F 15.2 °F 19.0 °F 81% 30.08 in 10.0 mi NE 8.1 mph - N/A   Overcast
2:34 AM 24.8 °F 16.1 °F 21.2 °F 86% 30.02 in 3.0 mi North 8.1 mph - 0.00 in Snow Light Snow
2:51 AM 25.0 °F 17.1 °F 21.9 °F 88% 30.08 in 2.0 mi NNE 6.9 mph - 0.00 in Snow Light Snow
2:57 AM 24.8 °F 17.9 °F 21.2 °F 86% 30.01 in 1.5 mi NNE 5.8 mph - 0.00 in Snow Light Snow
3:12 AM 24.8 °F 19.1 °F 21.2 °F 86% 30.01 in 2.5 mi NE 4.6 mph - 0.00 in Snow Light Snow
3:19 AM 24.8 °F 17.9 °F 21.2 °F 86% 30.01 in 3.0 mi NE 5.8 mph - 0.00 in Snow Light Snow
3:51 AM 24.1 °F - 21.9 °F 91% 30.09 in 4.0 mi Calm Calm - 0.00 in Snow Light Snow
4:51 AM 24.1 °F 17.0 °F 19.9 °F 84% 30.09 in 10.0 mi SSW 5.8 mph - N/A   Overcast
5:56 AM 24.8 °F - 19.4 °F 80% 30.02 in 2.0 mi Calm Calm - 0.00 in Snow Light Snow
6:03 AM 23.0 °F - 21.2 °F 93% 30.02 in 2.5 mi Calm Calm - 0.00 in Snow Light Snow
6:11 AM 23.0 °F - 21.2 °F 93% 30.02 in 4.0 mi Calm Calm - 0.00 in Snow Light Snow
6:26 AM 24.8 °F - 21.2 °F 86% 30.02 in 1.8 mi Calm Calm - 0.01 in Snow Light Snow
6:51 AM 23.0 °F - 21.0 °F 92% 30.11 in 7.0 mi Calm Calm - 0.01 in   Overcast
7:17 AM 21.2 °F 16.4 °F 19.4 °F 93% 30.03 in 6.0 mi NNW 3.5 mph - N/A   Overcast
7:51 AM 23.0 °F - 19.9 °F 88% 30.14 in 9.0 mi Calm Calm - N/A   Overcast
8:38 AM 24.8 °F - 21.2 °F 86% 30.07 in 4.0 mi Calm Calm - 0.00 in Snow Light Snow
9:51 AM 28.0 °F 24.2 °F 23.0 °F 81% 30.18 in 7.0 mi ENE 3.5 mph - 0.00 in   Overcast
10:51 AM 30.0 °F - 21.9 °F 72% 30.20 in 7.0 mi Calm Calm - N/A   Scattered Clouds
11:51 AM 32.0 °F - 21.9 °F 66% 30.19 in 10.0 mi Calm Calm - N/A   Overcast
12:51 PM 30.9 °F - 21.0 °F 67% 30.19 in 10.0 mi Calm Calm - N/A   Overcast
1:51 PM 33.1 °F - 19.9 °F 59% 30.15 in 10.0 mi Calm Calm - N/A   Clear
2:51 PM 32.0 °F - 19.9 °F 61% 30.14 in 10.0 mi Calm Calm - N/A   Mostly Cloudy
3:51 PM 32.0 °F - 21.9 °F 66% 30.15 in 10.0 mi Calm Calm - N/A   Overcast
4:51 PM 32.0 °F - 19.9 °F 61% 30.14 in 10.0 mi Calm Calm - N/A   Overcast
5:51 PM 32.0 °F 24.8 °F 19.9 °F 61% 30.13 in 10.0 mi South 8.1 mph - N/A   Overcast
6:51 PM 30.9 °F 22.8 °F 19.9 °F 64% 30.14 in 10.0 mi South 9.2 mph - N/A   Overcast
7:51 PM 30.9 °F 25.2 °F 19.0 °F 61% 30.14 in 10.0 mi South 5.8 mph - N/A   Overcast
8:51 PM 30.9 °F 21.7 °F 19.9 °F 64% 30.11 in 10.0 mi South 11.5 mph - N/A   Overcast
9:51 PM 30.9 °F 26.2 °F 19.9 °F 64% 30.08 in 10.0 mi South 4.6 mph - N/A   Overcast
10:51 PM 30.9 °F - 21.0 °F 67% 30.07 in 10.0 mi Calm Calm - N/A   Overcast
11:51 PM 32.0 °F - 21.0 °F 64% 30.04 in 10.0 mi Calm Calm - N/A   Overcast